Location: New Town
(33.2710°N, 90.7534°W)
Time: 13:51:28
(UTC+00:00)

Explorer 11/Cluster Stage 4 - Pass Details

Date: 16 May 2021
Orbit: 467 x 1257 km, 28.8° (Epoch: 14 June)

Event Time Altitude Azimuth Distance (km) Brightness Sun altitude
Rises 23:22:47 0° 222° (SW) 3,653 10.4 17.9°
Reaches altitude 10° 23:25:37 10° 211° (SSW) 2,827 9.7 17.3°
Maximum altitude 23:31:38 30° 154° (SSE) 1,929 8.4 16.1°
Drops below altitude 10° 23:38:21 10° 97° (E) 3,185 9.1 14.7°
Sets 23:41:45 0° 87° (E) 4,189 9.7 14.0°
